Tracking 30970 objects as of 3-Jul-2025
HD Live streaming from Space Station
objects crossing your sky now

BREEZE-M DEB

Track BREEZE-M DEB now!
10-day predictions


NORAD ID: 39174
Int'l Code: 2013-026C
Perigee: 394.0 km
Apogee: 14,555.9 km
Inclination: 50.8 °
Period: 270.2 minutes
Semi major axis: 13845 km
RCS: Unknown
Launch date: June 3, 2013
Source: Commonwealth of Independent States (former USSR) (CIS)
Launch site: TYURATAM MISSILE AND SPACE COMPLEX (TTMTR)

Note: This is SATELLITE DEBRIS
Your satellite tracking list
IRIDIUM 147
Track 1 satellite(s)




NASA's NSSDC Master Catalog

Two Line Element Set (TLE):
1 39174U 13026C   25183.28248769  .00000425  00000-0  31051-3 0  9995
2 39174  50.7541 291.3253 5114075 302.4686  18.0575  5.32867447232239
Source of the keplerian elements: AFSPC